GW6790 Weather Reports


time (UTC)temp
F
wind
direction
speed
knots
gust
knots
rain 1hr
in
rain 24hr
in
rain mn
in
humidity
%
barometer
mb
20260906140054 74 31 1.7 0.0 0.00 0.00 0.00 85 1016.2
20260906130018 73 12 1.7 0.0 0.00 0.00 0.00 88 1015.9
20260906120020 74 15 0.9 0.0 0.00 0.00 0.00 89 1015.3
20260906110019 76 26 0.9 0.0 0.00 0.00 0.00 86 1014.9
20260906100019 77 31 0.9 0.0 0.00 0.00 0.00 83 1014.6
20260906090020 79 43 0.9 0.0 0.00 0.00 0.00 84 1014.1
20260906080020 80 33 0.9 0.0 0.00 0.00 0.00 82 1014.0
20260906070054 82 67 0.9 0.0 0.00 0.00 0.00 77 1014.1
20260906060019 82 67 0.0 0.0 0.00 0.00 0.00 77 1014.2
20260906050159 82 166 0.0 0.0 0.00 0.00 0.00 76 1013.9
20260906040020 83 13 0.0 0.0 0.00 0.00 0.00 73 1013.5
20260906030050 85 348 0.0 0.0 0.00 0.00 0.00 68 1012.9
20260906020050 87 22 0.9 0.0 0.00 0.00 0.00 59 1012.2
20260906010019 90 9 0.9 0.0 0.00 0.00 0.00 51 1011.7
20260906000019 94 347 1.7 0.0 0.00 0.00 0.00 45 1011.8
20260905230054 95 332 1.7 0.0 0.00 0.00 0.00 42 1011.8
20260905220019 95 331 1.7 8.7 0.00 0.00 0.00 42 1011.8
20260905210019 95 262 1.7 16.5 0.00 0.00 0.00 42 1012.2
20260905200052 99 344 1.7 0.0 0.00 0.00 0.00 35 1012.5
20260905190050 99 325 2.6 8.7 0.00 0.00 0.00 37 1013.1
20260905180019 97 333 1.7 0.0 0.00 0.00 0.00 44 1013.7
20260905170019 93 334 1.7 0.0 0.00 0.00 0.00 50 1014.4
20260905160020 89 322 1.7 0.0 0.00 0.00 0.00 55 1014.6
20260905150019 85 311 0.9 0.0 0.00 0.00 0.00 62 1014.6